Weather History for KETB - November, 2011

Change the Weather History Date:

Sunday, November 27, 2011

  Actual Average Record
Temperature  
Mean Temperature 38 °F -  
Max Temperature 44 °F 38 °F - (-1)
Min Temperature 32 °F 25 °F - (-1)
Degree Days  
Heating Degree Days 27    
Moisture  
Dew Point 30 °F    
Average Humidity 84    
Maximum Humidity 100    
Minimum Humidity 69    
Precipitation  
Precipitation 0.07 in - - ()
Sea Level Pressure  
Sea Level Pressure 29.98 in    
Wind  
Wind Speed 11 mph (NNW)    
Max Wind Speed 20 mph    
Max Gust Speed 24 mph    
Visibility 10 miles    
Events Rain    
Averages and records for this station are not official NWS values.
T = Trace of Precipitation, MM = Missing Value Source: NWS Daily Summary

Daily Weather History Graph

Daily Weather History Graph

Search for Another Location

Airport or City:

Trip Planner

Search our weather history database for the weather conditions in past years. The results will help you decide how hot, cold, wet, or windy it might be!

Date:

Astronomy

Nov. 27, 2011 Rise Set
Actual Time 7:00 AM CST 4:19 PM CST
Civil Twilight 6:28 AM CST 4:51 PM CST
Nautical Twilight 5:53 AM CST 5:26 PM CST
Astronomical Twilight 5:19 AM CST 6:00 PM CST
Moon 9:26 AM CST (11/27) 6:57 PM CST (11/27)
Length of Visible Light 10h 22m
Length of Day
9h 18m
Waxing Crescent, 8% of the Moon is Illuminated
Nov 27
Waxing Crescent
Dec 2
First Quarter
Dec 10
Full
Dec 17
Last Quarter
Dec 24
New

Hourly Weather History & Observations

Time (CST) Temp. Windchill Dew Point Humidity Pressure Visibility Wind Dir Wind Speed Gust Speed Precip Events Conditions
12:15 AM 44.6 °F 39.2 °F 42.8 °F 93% 29.77 in 10.0 mi WNW 10.4 mph - 0.01 in Rain Rain
12:55 AM 42.8 °F 37.5 °F 42.8 °F 100% 29.76 in 10.0 mi WNW 9.2 mph - 0.02 in Rain Light Rain
1:15 AM 42.8 °F 38.6 °F 42.8 °F 100% 29.77 in 10.0 mi WNW 6.9 mph - N/A Rain Light Rain
1:35 AM 42.8 °F 37.0 °F 42.8 °F 100% 29.78 in 10.0 mi West 10.4 mph - 0.01 in Rain Light Rain
1:55 AM 42.8 °F 34.3 °F 41.0 °F 93% 29.78 in 10.0 mi NW 19.6 mph - 0.02 in Rain Light Rain
2:35 AM 41.0 °F 32.2 °F 39.2 °F 93% 29.79 in 10.0 mi NW 18.4 mph 23.0 mph 0.03 in Rain Light Rain
2:55 AM 41.0 °F 32.8 °F 37.4 °F 87% 29.80 in 10.0 mi NNW 16.1 mph 24.2 mph 0.03 in Rain Light Rain
3:15 AM 39.2 °F 32.5 °F 37.4 °F 93% 29.80 in 10.0 mi NNW 10.4 mph 18.4 mph N/A   Drizzle
3:35 AM 37.4 °F 28.9 °F 37.4 °F 100% 29.81 in 10.0 mi NNW 13.8 mph 17.3 mph N/A Rain Rain
3:55 AM 37.4 °F 29.3 °F 35.6 °F 93% 29.82 in 10.0 mi NNW 12.7 mph 21.9 mph N/A Rain Rain
4:15 AM 37.4 °F 29.8 °F 35.6 °F 93% 29.82 in 10.0 mi NNW 11.5 mph 18.4 mph N/A Rain Light Rain
4:35 AM 37.4 °F 29.3 °F 35.6 °F 93% 29.84 in 10.0 mi NNW 12.7 mph 18.4 mph N/A Rain Light Rain
5:15 AM 35.6 °F 27.5 °F 33.8 °F 93% 29.85 in 7.0 mi NW 11.5 mph - N/A Rain Light Rain
5:35 AM 35.6 °F 26.6 °F 33.8 °F 93% 29.86 in 10.0 mi NNW 13.8 mph 18.4 mph N/A Rain Rain
5:55 AM 35.6 °F 27.1 °F 33.8 °F 93% 29.87 in 10.0 mi NW 12.7 mph - N/A Rain Light Rain
6:35 AM 33.8 °F 24.8 °F 33.8 °F 100% 29.88 in 7.0 mi NNW 12.7 mph 18.4 mph N/A Rain Rain
6:55 AM 33.8 °F 25.8 °F 32.0 °F 93% 29.89 in 10.0 mi NNW 10.4 mph - N/A Rain Light Rain
7:15 AM 33.8 °F 27.0 °F 32.0 °F 93% 29.90 in 10.0 mi NNW 8.1 mph - N/A Rain Light Rain
7:55 AM 35.6 °F 27.5 °F 32.0 °F 87% 29.91 in 10.0 mi NW 11.5 mph - N/A   Overcast
8:15 AM 35.6 °F 27.5 °F 32.0 °F 87% 29.92 in 10.0 mi NNW 11.5 mph - N/A   Overcast
8:35 AM 35.6 °F 27.5 °F 32.0 °F 87% 29.92 in 10.0 mi NW 11.5 mph 20.7 mph N/A   Overcast
9:15 AM 35.6 °F 26.6 °F 32.0 °F 87% 29.95 in 10.0 mi NNW 13.8 mph 18.4 mph N/A   Overcast
9:35 AM 33.8 °F 25.3 °F 30.2 °F 87% 29.96 in 10.0 mi NNW 11.5 mph - N/A   Overcast
9:55 AM 33.8 °F 24.3 °F 30.2 °F 87% 29.97 in 10.0 mi NNW 13.8 mph 24.2 mph N/A   Overcast
10:35 AM 33.8 °F 24.3 °F 30.2 °F 87% 29.97 in 10.0 mi NNW 13.8 mph 20.7 mph N/A   Overcast
10:55 AM 33.8 °F 25.8 °F 30.2 °F 87% 29.97 in 10.0 mi NNW 10.4 mph - N/A   Overcast
11:15 AM 33.8 °F 24.8 °F 30.2 °F 87% 29.97 in 10.0 mi NNW 12.7 mph 18.4 mph N/A   Overcast
12:15 PM 33.8 °F 25.3 °F 28.4 °F 81% 29.98 in 10.0 mi NNW 11.5 mph - N/A   Overcast
12:35 PM 33.8 °F 24.8 °F 28.4 °F 81% 29.98 in 10.0 mi NNW 12.7 mph - N/A   Overcast
1:15 PM 33.8 °F 25.3 °F 28.4 °F 81% 29.99 in 10.0 mi North 11.5 mph - N/A   Overcast
1:35 PM 33.8 °F 24.8 °F 28.4 °F 81% 29.99 in 10.0 mi NNW 12.7 mph 18.4 mph N/A   Overcast
2:15 PM 32.0 °F 23.6 °F 26.6 °F 80% 30.00 in 10.0 mi NNW 10.4 mph - N/A   Overcast
2:35 PM 32.0 °F 23.0 °F 26.6 °F 80% 30.02 in 10.0 mi North 11.5 mph - N/A   Overcast
2:55 PM 32.0 °F 24.2 °F 26.6 °F 80% 30.03 in 10.0 mi NNW 9.2 mph - N/A   Overcast
3:15 PM 32.0 °F 24.2 °F 26.6 °F 80% 30.03 in 10.0 mi NNW 9.2 mph - N/A   Overcast
3:35 PM 32.0 °F 24.8 °F 26.6 °F 80% 30.04 in 10.0 mi NNW 8.1 mph - N/A   Overcast
3:55 PM 33.8 °F 27.0 °F 26.6 °F 75% 30.05 in 10.0 mi NNW 8.1 mph - N/A   Overcast
4:15 PM 33.8 °F 28.6 °F 26.6 °F 75% 30.05 in 10.0 mi North 5.8 mph - N/A   Overcast
4:35 PM 33.8 °F 27.7 °F 26.6 °F 75% 30.06 in 10.0 mi NNW 6.9 mph - N/A   Overcast
5:15 PM 33.8 °F 27.7 °F 26.6 °F 75% 30.07 in 10.0 mi North 6.9 mph - N/A   Overcast
5:35 PM 33.8 °F 25.8 °F 26.6 °F 75% 30.08 in 10.0 mi NNW 10.4 mph - N/A   Overcast
5:55 PM 32.0 °F 23.0 °F 26.6 °F 80% 30.08 in 10.0 mi NW 11.5 mph - N/A   Overcast
6:15 PM 32.0 °F 23.6 °F 26.6 °F 80% 30.08 in 10.0 mi NNW 10.4 mph - N/A   Overcast
6:55 PM 32.0 °F 25.6 °F 26.6 °F 80% 30.09 in 10.0 mi NNW 6.9 mph - N/A   Overcast
7:15 PM 32.0 °F 26.4 °F 26.6 °F 80% 30.09 in 10.0 mi NNW 5.8 mph - N/A   Overcast
7:35 PM 32.0 °F 25.6 °F 26.6 °F 80% 30.10 in 10.0 mi NNW 6.9 mph - N/A   Overcast
7:55 PM 32.0 °F 24.8 °F 26.6 °F 80% 30.11 in 10.0 mi NNW 8.1 mph - N/A   Overcast
8:15 PM 32.0 °F 26.4 °F 26.6 °F 80% 30.12 in 10.0 mi North 5.8 mph - N/A   Overcast
8:35 PM 32.0 °F 25.6 °F 26.6 °F 80% 30.13 in 10.0 mi North 6.9 mph - N/A   Overcast
8:55 PM 32.0 °F 23.6 °F 23.0 °F 69% 30.12 in 10.0 mi North 10.4 mph - N/A   Overcast
9:15 PM 32.0 °F 25.6 °F 23.0 °F 69% 30.13 in 10.0 mi North 6.9 mph - N/A   Overcast
9:35 PM 32.0 °F 26.4 °F 24.8 °F 75% 30.12 in 10.0 mi NNW 5.8 mph - N/A   Overcast
9:55 PM 32.0 °F 24.8 °F 24.8 °F 75% 30.13 in 10.0 mi NNW 8.1 mph - N/A   Overcast
10:15 PM 32.0 °F 26.4 °F 24.8 °F 75% 30.14 in 10.0 mi North 5.8 mph - N/A   Overcast
10:35 PM 32.0 °F 26.4 °F 24.8 °F 75% 30.15 in 10.0 mi NNW 5.8 mph - N/A   Overcast
11:15 PM 32.0 °F 24.8 °F 24.8 °F 75% 30.15 in 10.0 mi NNW 8.1 mph - N/A   Overcast
11:35 PM 32.0 °F 25.6 °F 24.8 °F 75% 30.14 in 10.0 mi NW 6.9 mph - N/A   Overcast
11:55 PM 32.0 °F 27.5 °F 24.8 °F 75% 30.13 in 10.0 mi NNW 4.6 mph - N/A   Overcast